Time,TemperatureF,DewpointF,PressureIn,WindDirection,WindDirectionDegrees,WindSpeedMPH,WindSpeedGustMPH,Humidity,HourlyPrecipIn,Conditions,Clouds,dailyrainin,SoftwareType,DateUTC
2013-02-09 00:00:00,30.8,25.4,30.22,East,82,2.0,4.0,80,0.00,,,0.07,Wunderground v.1.13,2013-02-09 05:00:00,
2013-02-09 00:10:00,30.7,25.3,30.23,NNE,28,3.0,5.0,80,0.00,,,0.00,Wunderground v.1.13,2013-02-09 05:10:00,
2013-02-09 00:20:00,30.6,25.2,30.23,East,88,3.0,3.0,80,0.00,,,0.00,Wunderground v.1.13,2013-02-09 05:20:00,
2013-02-09 00:30:00,30.5,24.8,30.23,NE,43,2.0,2.0,79,0.00,,,0.00,Wunderground v.1.13,2013-02-09 05:30:00,
2013-02-09 00:40:00,30.4,24.7,30.24,ENE,71,2.0,2.0,79,0.00,,,0.00,Wunderground v.1.13,2013-02-09 05:40:00,
2013-02-09 00:50:00,30.4,24.7,30.25,NE,35,2.0,2.0,79,0.00,,,0.00,Wunderground v.1.13,2013-02-09 05:50:00,
2013-02-09 01:00:00,30.3,24.9,30.25,NE,42,3.0,5.0,80,0.00,,,0.00,Wunderground v.1.13,2013-02-09 06:00:00,
2013-02-09 01:10:00,30.3,24.6,30.26,NE,55,2.0,6.0,79,0.00,,,0.00,Wunderground v.1.13,2013-02-09 06:10:00,
2013-02-09 01:20:00,30.1,24.1,30.26,ENE,73,3.0,3.0,78,0.00,,,0.00,Wunderground v.1.13,2013-02-09 06:20:00,
2013-02-09 01:30:00,30.0,24.0,30.26,East,80,2.0,2.0,78,0.00,,,0.00,Wunderground v.1.13,2013-02-09 06:30:00,
2013-02-09 01:40:00,29.9,23.9,30.27,NE,42,2.0,2.0,78,0.00,,,0.00,Wunderground v.1.13,2013-02-09 06:40:00,
2013-02-09 01:50:00,29.9,23.6,30.27,East,87,2.0,6.0,77,0.00,,,0.00,Wunderground v.1.13,2013-02-09 06:50:00,
2013-02-09 02:00:00,29.7,23.4,30.27,East,86,4.0,4.0,77,0.00,,,0.00,Wunderground v.1.13,2013-02-09 07:00:00,
2013-02-09 02:10:00,29.6,23.0,30.27,East,89,2.0,5.0,76,0.00,,,0.00,Wunderground v.1.13,2013-02-09 07:10:00,
2013-02-09 02:20:00,29.5,22.9,30.28,ENE,64,2.0,2.0,76,0.00,,,0.00,Wunderground v.1.13,2013-02-09 07:20:00,
2013-02-09 02:30:00,29.5,22.6,30.28,East,80,2.0,5.0,75,0.00,,,0.00,Wunderground v.1.13,2013-02-09 07:30:00,
2013-02-09 02:40:00,29.4,23.1,30.29,East,95,2.0,2.0,77,0.00,,,0.00,Wunderground v.1.13,2013-02-09 07:40:00,
2013-02-09 02:50:00,29.4,22.1,30.29,NNE,30,2.0,2.0,74,0.00,,,0.00,Wunderground v.1.13,2013-02-09 07:50:00,
2013-02-09 03:00:00,29.4,22.8,30.29,ENE,65,1.0,1.0,76,0.00,,,0.00,Wunderground v.1.13,2013-02-09 08:00:00,
2013-02-09 03:10:00,29.3,22.4,30.29,ENE,70,2.0,2.0,75,0.00,,,0.00,Wunderground v.1.13,2013-02-09 08:10:00,
2013-02-09 03:20:00,29.3,22.0,30.29,NE,54,1.0,1.0,74,0.00,,,0.00,Wunderground v.1.13,2013-02-09 08:20:00,
2013-02-09 03:30:00,29.2,22.6,30.29,ENE,71,0.0,0.0,76,0.00,,,0.00,Wunderground v.1.13,2013-02-09 08:30:00,
2013-02-09 03:40:00,29.2,21.0,30.29,ENE,65,2.0,2.0,71,0.00,,,0.00,Wunderground v.1.13,2013-02-09 08:40:00,
2013-02-09 03:50:00,29.1,20.9,30.29,NE,53,2.0,2.0,71,0.00,,,0.00,Wunderground v.1.13,2013-02-09 08:50:00,
2013-02-09 04:00:00,29.1,19.8,30.30,ENE,77,2.0,3.0,68,0.00,,,0.00,Wunderground v.1.13,2013-02-09 09:00:00,
2013-02-09 04:10:00,29.1,20.2,30.30,ENE,64,1.0,1.0,69,0.00,,,0.00,Wunderground v.1.13,2013-02-09 09:10:00,
2013-02-09 04:20:00,29.1,20.2,30.30,East,87,2.0,2.0,69,0.00,,,0.00,Wunderground v.1.13,2013-02-09 09:20:00,
2013-02-09 04:30:00,29.0,21.1,30.30,NE,34,1.0,1.0,72,0.00,,,0.00,Wunderground v.1.13,2013-02-09 09:30:00,
2013-02-09 04:40:00,28.9,20.3,30.31,ENE,69,1.0,3.0,70,0.00,,,0.00,Wunderground v.1.13,2013-02-09 09:40:00,
2013-02-09 04:50:00,28.9,20.7,30.31,ENE,66,1.0,4.0,71,0.00,,,0.00,Wunderground v.1.13,2013-02-09 09:50:00,
2013-02-09 05:00:00,28.9,21.0,30.31,ENE,76,1.0,1.0,72,0.00,,,0.00,Wunderground v.1.13,2013-02-09 10:00:00,
2013-02-09 05:10:00,28.7,20.1,30.32,ENE,75,1.0,3.0,70,0.00,,,0.00,Wunderground v.1.13,2013-02-09 10:10:00,
2013-02-09 05:20:00,28.6,20.7,30.32,East,79,1.0,1.0,72,0.00,,,0.00,Wunderground v.1.13,2013-02-09 10:20:00,
2013-02-09 05:30:00,28.6,21.0,30.32,ENE,70,1.0,1.0,73,0.00,,,0.00,Wunderground v.1.13,2013-02-09 10:30:00,
2013-02-09 05:40:00,28.7,20.5,30.33,NE,44,2.0,2.0,71,0.00,,,0.00,Wunderground v.1.13,2013-02-09 10:40:00,
2013-02-09 05:50:00,28.7,20.5,30.34,ENE,71,1.0,3.0,71,0.00,,,0.00,Wunderground v.1.13,2013-02-09 10:50:00,
2013-02-09 06:00:00,28.5,20.0,30.34,NE,45,2.0,2.0,70,0.00,,,0.00,Wunderground v.1.13,2013-02-09 11:00:00,
2013-02-09 06:10:00,28.5,20.0,30.34,East,90,2.0,3.0,70,0.00,,,0.00,Wunderground v.1.13,2013-02-09 11:10:00,
2013-02-09 06:20:00,28.4,19.9,30.35,NE,45,1.0,1.0,70,0.00,,,0.00,Wunderground v.1.13,2013-02-09 11:20:00,
2013-02-09 06:30:00,28.4,20.5,30.35,East,82,1.0,1.0,72,0.00,,,0.00,Wunderground v.1.13,2013-02-09 11:30:00,
2013-02-09 06:40:00,28.4,20.2,30.35,ENE,67,1.0,2.0,71,0.00,,,0.00,Wunderground v.1.13,2013-02-09 11:40:00,
2013-02-09 06:50:00,28.3,20.1,30.36,ENE,61,1.0,1.0,71,0.00,,,0.00,Wunderground v.1.13,2013-02-09 11:50:00,
2013-02-09 07:00:00,28.3,20.7,30.36,ENE,57,0.0,0.0,73,0.00,,,0.00,Wunderground v.1.13,2013-02-09 12:00:00,
2013-02-09 07:10:00,28.2,20.3,30.35,ENE,65,0.0,0.0,72,0.00,,,0.00,Wunderground v.1.13,2013-02-09 12:10:00,
2013-02-09 07:20:00,28.3,20.4,30.36,ENE,73,0.0,0.0,72,0.00,,,0.00,Wunderground v.1.13,2013-02-09 12:20:00,
2013-02-09 07:30:00,28.3,20.4,30.36,ESE,117,1.0,1.0,72,0.00,,,0.00,Wunderground v.1.13,2013-02-09 12:30:00,
2013-02-09 07:40:00,28.4,21.2,30.37,ENE,69,0.0,1.0,74,0.00,,,0.00,Wunderground v.1.13,2013-02-09 12:40:00,
2013-02-09 07:50:00,28.4,20.8,30.38,ENE,63,1.0,2.0,73,0.00,,,0.00,Wunderground v.1.13,2013-02-09 12:50:00,
2013-02-09 08:00:00,28.4,21.2,30.38,ENE,74,2.0,2.0,74,0.00,,,0.00,Wunderground v.1.13,2013-02-09 13:00:00,
2013-02-09 08:10:00,28.2,20.7,30.38,East,80,1.0,1.0,73,0.00,,,0.00,Wunderground v.1.13,2013-02-09 13:10:00,
2013-02-09 08:20:00,28.1,20.6,30.38,East,82,1.0,3.0,73,0.00,,,0.00,Wunderground v.1.13,2013-02-09 13:20:00,
2013-02-09 08:30:00,28.2,20.3,30.38,East,94,2.0,2.0,72,0.00,,,0.00,Wunderground v.1.13,2013-02-09 13:30:00,
2013-02-09 08:40:00,28.2,19.7,30.39,South,187,1.0,1.0,70,0.00,,,0.00,Wunderground v.1.13,2013-02-09 13:40:00,
2013-02-09 08:50:00,28.3,20.1,30.39,East,82,1.0,1.0,71,0.00,,,0.00,Wunderground v.1.13,2013-02-09 13:50:00,
2013-02-09 09:00:00,28.4,19.9,30.39,ENE,74,1.0,1.0,70,0.00,,,0.00,Wunderground v.1.13,2013-02-09 14:00:00,
2013-02-09 09:10:00,28.4,19.5,30.39,East,100,1.0,2.0,69,0.00,,,0.00,Wunderground v.1.13,2013-02-09 14:10:00,
2013-02-09 09:20:00,28.5,20.0,30.39,East,84,1.0,1.0,70,0.00,,,0.00,Wunderground v.1.13,2013-02-09 14:20:00,
2013-02-09 09:30:00,28.4,19.5,30.40,ENE,68,2.0,2.0,69,0.00,,,0.00,Wunderground v.1.13,2013-02-09 14:30:00,
2013-02-09 09:40:00,28.5,19.3,30.40,SSE,154,1.0,1.0,68,0.00,,,0.00,Wunderground v.1.13,2013-02-09 14:40:00,
2013-02-09 09:50:00,28.9,19.3,30.39,ENE,76,1.0,3.0,67,0.00,,,0.00,Wunderground v.1.13,2013-02-09 14:50:00,
2013-02-09 10:00:00,29.0,19.1,30.39,South,172,1.0,1.0,66,0.00,,,0.00,Wunderground v.1.13,2013-02-09 15:00:00,
2013-02-09 10:10:00,29.3,19.7,30.40,ENE,76,1.0,1.0,67,0.00,,,0.00,Wunderground v.1.13,2013-02-09 15:10:00,
2013-02-09 10:20:00,30.1,20.1,30.41,ENE,74,1.0,2.0,66,0.00,,,0.00,Wunderground v.1.13,2013-02-09 15:20:00,
2013-02-09 10:30:00,30.3,19.9,30.41,NE,36,1.0,2.0,65,0.00,,,0.00,Wunderground v.1.13,2013-02-09 15:30:00,
2013-02-09 10:40:00,29.8,19.5,30.40,East,86,2.0,2.0,65,0.00,,,0.00,Wunderground v.1.13,2013-02-09 15:40:00,
2013-02-09 10:50:00,30.1,20.1,30.40,ENE,78,1.0,1.0,66,0.00,,,0.00,Wunderground v.1.13,2013-02-09 15:50:00,
2013-02-09 11:00:00,30.6,19.9,30.40,East,87,1.0,4.0,64,0.00,,,0.00,Wunderground v.1.13,2013-02-09 16:00:00,
2013-02-09 11:10:00,30.4,20.0,30.41,East,84,2.0,2.0,65,0.00,,,0.00,Wunderground v.1.13,2013-02-09 16:10:00,
2013-02-09 11:20:00,30.6,20.2,30.40,ENE,61,2.0,2.0,65,0.00,,,0.00,Wunderground v.1.13,2013-02-09 16:20:00,
2013-02-09 11:30:00,30.8,20.4,30.40,NE,50,1.0,1.0,65,0.00,,,0.00,Wunderground v.1.13,2013-02-09 16:30:00,
2013-02-09 11:40:00,31.6,20.8,30.40,NE,55,2.0,2.0,64,0.00,,,0.00,Wunderground v.1.13,2013-02-09 16:40:00,
2013-02-09 11:50:00,32.3,20.7,30.39,ENE,59,2.0,2.0,62,0.00,,,0.00,Wunderground v.1.13,2013-02-09 16:50:00,
2013-02-09 12:00:00,32.7,21.5,30.39,NE,50,2.0,2.0,63,0.00,,,0.00,Wunderground v.1.13,2013-02-09 17:00:00,
2013-02-09 12:10:00,32.9,20.1,30.38,NE,49,1.0,2.0,59,0.00,,,0.00,Wunderground v.1.13,2013-02-09 17:10:00,
2013-02-09 12:20:00,33.6,20.4,30.37,East,94,1.0,1.0,58,0.00,,,0.00,Wunderground v.1.13,2013-02-09 17:20:00,
2013-02-09 12:30:00,34.2,20.9,30.37,East,92,1.0,1.0,58,0.00,,,0.00,Wunderground v.1.13,2013-02-09 17:30:00,
2013-02-09 12:40:00,34.8,22.3,30.37,WNW,293,1.0,1.0,60,0.00,,,0.00,Wunderground v.1.13,2013-02-09 17:40:00,
2013-02-09 12:50:00,36.1,22.7,30.36,West,261,2.0,3.0,58,0.00,,,0.00,Wunderground v.1.13,2013-02-09 17:50:00,
2013-02-09 13:00:00,35.9,20.9,30.36,West,277,2.0,2.0,54,0.00,,,0.00,Wunderground v.1.13,2013-02-09 18:00:00,
2013-02-09 13:10:00,36.3,21.2,30.35,North,349,2.0,4.0,54,0.00,,,0.00,Wunderground v.1.13,2013-02-09 18:10:00,
2013-02-09 13:20:00,36.3,21.7,30.34,NW,311,2.0,2.0,55,0.00,,,0.00,Wunderground v.1.13,2013-02-09 18:20:00,
2013-02-09 13:30:00,36.8,21.7,30.34,NW,304,2.0,2.0,54,0.00,,,0.00,Wunderground v.1.13,2013-02-09 18:30:00,
2013-02-09 13:40:00,37.4,22.3,30.34,NW,313,2.0,3.0,54,0.00,,,0.00,Wunderground v.1.13,2013-02-09 18:40:00,
2013-02-09 13:50:00,37.2,20.7,30.34,North,355,2.0,3.0,51,0.00,,,0.00,Wunderground v.1.13,2013-02-09 18:50:00,
2013-02-09 14:00:00,37.3,20.8,30.34,NW,326,2.0,2.0,51,0.00,,,0.00,Wunderground v.1.13,2013-02-09 19:00:00,
2013-02-09 14:10:00,37.3,21.3,30.34,NW,317,1.0,1.0,52,0.00,,,0.00,Wunderground v.1.13,2013-02-09 19:10:00,
2013-02-09 14:20:00,37.5,21.5,30.34,SE,146,1.0,1.0,52,0.00,,,0.00,Wunderground v.1.13,2013-02-09 19:20:00,
2013-02-09 14:30:00,38.7,21.6,30.34,West,275,1.0,1.0,50,0.00,,,0.00,Wunderground v.1.13,2013-02-09 19:30:00,
2013-02-09 14:40:00,38.8,21.7,30.33,WNW,284,2.0,3.0,50,0.00,,,0.00,Wunderground v.1.13,2013-02-09 19:40:00,
2013-02-09 14:50:00,38.8,20.8,30.33,WNW,294,2.0,2.0,48,0.00,,,0.00,Wunderground v.1.13,2013-02-09 19:50:00,
2013-02-09 15:00:00,38.5,20.5,30.33,NNW,328,1.0,1.0,48,0.00,,,0.00,Wunderground v.1.13,2013-02-09 20:00:00,
2013-02-09 15:10:00,38.5,20.5,30.34,NW,312,1.0,2.0,48,0.00,,,0.00,Wunderground v.1.13,2013-02-09 20:10:00,
2013-02-09 15:20:00,39.0,20.9,30.34,NW,315,1.0,3.0,48,0.00,,,0.00,Wunderground v.1.13,2013-02-09 20:20:00,
2013-02-09 15:30:00,40.4,21.2,30.34,WSW,249,2.0,2.0,46,0.00,,,0.00,Wunderground v.1.13,2013-02-09 20:30:00,
2013-02-09 15:40:00,40.0,19.8,30.34,SW,224,1.0,2.0,44,0.00,,,0.00,Wunderground v.1.13,2013-02-09 20:40:00,
2013-02-09 15:50:00,40.0,19.8,30.35,NW,315,1.0,2.0,44,0.00,,,0.00,Wunderground v.1.13,2013-02-09 20:50:00,
2013-02-09 16:00:00,40.1,19.4,30.35,NNE,32,1.0,1.0,43,0.00,,,0.00,Wunderground v.1.13,2013-02-09 21:00:00,
2013-02-09 16:10:00,40.0,19.8,30.35,NNW,327,1.0,1.0,44,0.00,,,0.00,Wunderground v.1.13,2013-02-09 21:10:00,
2013-02-09 16:20:00,39.7,19.0,30.35,East,101,0.0,1.0,43,0.00,,,0.00,Wunderground v.1.13,2013-02-09 21:20:00,
2013-02-09 16:30:00,39.6,21.0,30.34,NE,37,1.0,1.0,47,0.00,,,0.00,Wunderground v.1.13,2013-02-09 21:30:00,
2013-02-09 16:40:00,39.8,20.7,30.35,NE,36,1.0,1.0,46,0.00,,,0.00,Wunderground v.1.13,2013-02-09 21:40:00,
2013-02-09 16:50:00,40.3,20.1,30.34,NE,36,0.0,0.0,44,0.00,,,0.00,Wunderground v.1.13,2013-02-09 21:50:00,
2013-02-09 17:00:00,40.1,19.4,30.35,NNW,346,0.0,0.0,43,0.00,,,0.00,Wunderground v.1.13,2013-02-09 22:00:00,
2013-02-09 17:10:00,39.7,19.5,30.35,NNE,23,0.0,0.0,44,0.00,,,0.00,Wunderground v.1.13,2013-02-09 22:10:00,
2013-02-09 17:20:00,39.5,20.4,30.34,NNE,23,0.0,0.0,46,0.00,,,0.00,Wunderground v.1.13,2013-02-09 22:20:00,
2013-02-09 17:30:00,38.8,19.2,30.34,SW,222,0.0,0.0,45,0.00,,,0.00,Wunderground v.1.13,2013-02-09 22:30:00,
2013-02-09 17:40:00,38.3,19.8,30.35,SW,222,0.0,0.0,47,0.00,,,0.00,Wunderground v.1.13,2013-02-09 22:40:00,
2013-02-09 17:50:00,37.9,20.9,30.35,SW,222,0.0,0.0,50,0.00,,,0.00,Wunderground v.1.13,2013-02-09 22:50:00,
2013-02-09 18:00:00,37.3,19.4,30.35,SW,222,0.0,0.0,48,0.00,,,0.00,Wunderground v.1.13,2013-02-09 23:00:00,
2013-02-09 18:10:00,36.8,19.4,30.35,SW,222,0.0,0.0,49,0.00,,,0.00,Wunderground v.1.13,2013-02-09 23:10:00,
2013-02-09 18:20:00,36.2,20.2,30.35,SW,222,0.0,0.0,52,0.00,,,0.00,Wunderground v.1.13,2013-02-09 23:20:00,
2013-02-09 18:30:00,35.8,19.9,30.35,SW,222,0.0,0.0,52,0.00,,,0.00,Wunderground v.1.13,2013-02-09 23:30:00,
2013-02-09 18:40:00,35.2,20.2,30.35,SW,222,0.0,0.0,54,0.00,,,0.00,Wunderground v.1.13,2013-02-09 23:40:00,
2013-02-09 18:50:00,34.7,20.6,30.35,SW,222,0.0,0.0,56,0.00,,,0.00,Wunderground v.1.13,2013-02-09 23:50:00,
2013-02-09 19:00:00,34.1,20.4,30.35,SW,222,0.0,0.0,57,0.00,,,0.00,Wunderground v.1.13,2013-02-10 00:00:00,
2013-02-09 19:10:00,33.6,20.8,30.35,SW,222,0.0,0.0,59,0.00,,,0.00,Wunderground v.1.13,2013-02-10 00:10:00,
2013-02-09 19:20:00,33.0,20.6,30.35,SW,222,0.0,0.0,60,0.00,,,0.00,Wunderground v.1.13,2013-02-10 00:20:00,
2013-02-09 19:30:00,32.6,20.6,30.35,SW,222,0.0,0.0,61,0.00,,,0.00,Wunderground v.1.13,2013-02-10 00:30:00,
2013-02-09 19:40:00,32.2,21.0,30.35,SW,222,0.0,0.0,63,0.00,,,0.00,Wunderground v.1.13,2013-02-10 00:40:00,
2013-02-09 19:50:00,31.7,21.6,30.35,SW,222,0.0,0.0,66,0.00,,,0.00,Wunderground v.1.13,2013-02-10 00:50:00,
2013-02-09 20:00:00,31.1,21.8,30.36,SW,222,0.0,0.0,68,0.00,,,0.00,Wunderground v.1.13,2013-02-10 01:00:00,
2013-02-09 20:15:00,30.8,21.8,30.36,North,-999,0.0,0.0,69,0.00,,,-99.99,WeatherLink 6.0.2,2013-02-10 01:15:00,
2013-02-09 20:30:00,30.4,23.1,30.35,North,-999,0.0,0.0,74,0.00,,,-99.99,WeatherLink 6.0.2,2013-02-10 01:30:00,
2013-02-09 20:45:00,30.0,22.4,30.35,North,-999,0.0,0.0,73,0.00,,,-99.99,WeatherLink 6.0.2,2013-02-10 01:45:00,
2013-02-09 21:00:00,29.7,22.4,30.35,North,-999,0.0,0.0,74,0.00,,,-99.99,WeatherLink 6.0.2,2013-02-10 02:00:00,
2013-02-09 21:15:00,29.5,22.9,30.35,North,-999,0.0,0.0,76,0.00,,,-99.99,WeatherLink 6.0.2,2013-02-10 02:15:00,
2013-02-09 21:30:00,29.1,22.8,30.35,North,-999,0.0,0.0,77,0.00,,,-99.99,WeatherLink 6.0.2,2013-02-10 02:30:00,
2013-02-09 21:45:00,28.9,22.9,30.35,North,-999,0.0,0.0,78,0.00,,,-99.99,WeatherLink 6.0.2,2013-02-10 02:45:00,
2013-02-09 22:00:00,28.6,22.9,30.35,SW,222,0.0,0.0,79,0.00,,,0.00,Wunderground v.1.13,2013-02-10 03:00:00,
2013-02-09 22:15:00,28.4,23.0,30.35,North,-999,0.0,0.0,80,0.00,,,-99.99,WeatherLink 6.0.2,2013-02-10 03:15:00,
2013-02-09 22:30:00,28.2,23.1,30.33,North,-999,0.0,0.0,81,0.00,,,-99.99,WeatherLink 6.0.2,2013-02-10 03:30:00,
2013-02-09 22:45:00,27.7,23.2,30.33,North,-999,0.0,0.0,83,0.00,,,-99.99,WeatherLink 6.0.2,2013-02-10 03:45:00,
2013-02-09 23:00:00,27.3,23.1,30.32,North,-999,0.0,0.0,84,0.00,,,-99.99,WeatherLink 6.0.2,2013-02-10 04:00:00,
2013-02-09 23:15:00,26.9,23.0,30.32,North,-999,0.0,0.0,85,0.00,,,-99.99,WeatherLink 6.0.2,2013-02-10 04:15:00,
2013-02-09 23:30:00,26.7,23.1,30.32,North,-999,0.0,0.0,86,0.00,,,-99.99,WeatherLink 6.0.2,2013-02-10 04:30:00,
2013-02-09 23:45:00,26.6,22.7,30.32,North,-999,0.0,0.0,85,0.00,,,-99.99,WeatherLink 6.0.2,2013-02-10 04:45:00,